STARLINK-34309, 64167

Orbit data source: Space-Track

STARLINK-34309, 64167 is a payload satellite owned by SpaceX/Seattle (US) in SSO that was launched on Tue, 27 May 2025 UTC via an FALCON 9 launch vehicle from the Air Force Western Test Range (AFWTR). Payload-class satellites include a variety of spacecraft equipped with specific instruments for various scientific and technological missions. These include communications satellites like Starlink; space stations such as the ISS; scientific satellites like the Hubble; Earth observation satellites from companies like Planet Labs, Umbra, and HawkEye 360; GPS; miniature CubeSats for education and research; and military/defense satellites.

Loading next visibility...
Identifier
64167, 2025-112X
Orbit
SSO
Country
Flag of USUS
Related business
Manufacturer
SpaceX/Seattle
Mission
Operational Commercial Communications
Bus & Motor
STARLINK V2MO, Unknown motor
Mass
575 kg wet, ~530 kg dry
Launch date (UTC)
2025-05-27 (1 year ago)
Launch vehicle
FALCON 9
Launch site
Air Force Western Test Range (AFWTR)
Object type
Payload
Rocket body
Debris
Shape & HBR
Box + 1 Pan, 17.7 m
Radar Cross Section
41.120 m², Large (>1 m²)

Expand to show TLE details & history
Last TLE update: 8 hours ago

TLE from 8 hours ago
0 STARLINK-34309
1 64167U 25112X   26238.08036145  .00012802  00000-0  39808-3 0  9997
2 64167  97.2827 285.5407 0001460 110.2799 249.8601 15.33453643 68856
Epoch: 2026-08-26T01:55Z
TLE epoch observation values (Epoch: 2026-08-26T01:55:43.229Z)
Latitude
0.00001°
Longitude
-77.72792°
Altitude
468.974 km
Speed
7.632 km/s
True Right ascension
19h 02m 09s
True Declination
0° 00' 00"
Sunlit
Object was in full shadow at epoch
Visualization orbit readout
Latitude
Unknown
Longitude
Unknown
Altitude
Unknown
Speed
Unknown
Apparent Right ascension
Unknown
Apparent Declination
Unknown
Sunlit
N/A
Visualization observer readout
Local Sidereal Time
01:13:24
Azimuth
Unknown
Elevation
Unknown
Doppler factor
Unknown
Orbital elements
Apogee altitude
463.459 km
Perigee altitude
461.461 km
Semi-major axis
6,840.597 km
Eccentricity
0.00015
Inclination
97.2827°
RAAN
285.5407°
Arg. of periapsis
110.2799°
True anomaly
249.84439°
Mean anomaly
249.8601°
Eccentric anomaly
249.85225°
Mean motion
3.83621 °/min
Orbital period
93.84 mins
BSTAR
0.00039808
Loading maneuver chart data...
Computing Atmospheric mass density...
Loading historical data...
Loading historical data...
Loading historical data...
Loading historical data...
Loading historical data...
Loading historical data...
Loading historical data...

Documentation

Showing up to 5 results
|